Satellite: INMARSAT 3-F1
Catalog number: 23839
Epoch time:      102355.67222818
Element set:     839 
Inclination:        0.0456 deg
RA of node:        12.9873 deg
Eccentricity:    0.0004261
Arg of perigee:   238.0560 deg
Mean anomaly:     144.9402 deg
Mean motion:    1.00273650 rev/day
Decay rate:    3.6000E-007 rev/day^2
Epoch rev:            2462
Checksum:              270

Satellite: ASTRA 1F
Catalog number: 23842
Epoch time:      102354.00000000
Element set:     554 
Inclination:        0.0122 deg
RA of node:       319.8851 deg
Eccentricity:    0.0002995
Arg of perigee:    65.1991 deg
Mean anomaly:      82.5479 deg
Mean motion:    1.00273184 rev/day
Decay rate:    1.4299E-006 rev/day^2
Epoch rev:            2451
Checksum:              257

Satellite: JAS 2
Catalog number: 24278
Epoch time:      102359.88831578
Element set:     556 
Inclination:       98.5314 deg
RA of node:       153.5561 deg
Eccentricity:    0.0351351
Arg of perigee:   358.3777 deg
Mean anomaly:       1.6198 deg
Mean motion:   13.52867884 rev/day
Decay rate:    4.1000E-007 rev/day^2
Epoch rev:           31391
Checksum:              335

Satellite: UNAMSAT
Catalog number: 24305
Epoch time:      102360.21447759
Element set:     649 
Inclination:       82.9312 deg
RA of node:       302.9741 deg
Eccentricity:    0.0031472
Arg of perigee:   357.5345 deg
Mean anomaly:       2.5648 deg
Mean motion:   13.73444409 rev/day
Decay rate:    2.0499E-006 rev/day^2
Epoch rev:           31602
Checksum:              297

Satellite: INMARSAT 3-F2
Catalog number: 24307
Epoch time:      102356.97938659
Element set:     62 
Inclination:        0.0472 deg
RA of node:         4.0122 deg
Eccentricity:    0.0004388
Arg of perigee:   269.0038 deg
Mean anomaly:     155.4258 deg
Mean motion:    1.00272052 rev/day
Decay rate:   -1.0600E-006 rev/day^2
Epoch rev:            2304
Checksum:              363

Satellite: HOT BIRD 2
Catalog number: 24665
Epoch time:      102350.97625740
Element set:     336 
Inclination:        0.0508 deg
RA of node:       231.3890 deg
Eccentricity:    0.0009627
Arg of perigee:    13.0081 deg
Mean anomaly:     205.5338 deg
Mean motion:    1.00276963 rev/day
Decay rate:    1.1199E-006 rev/day^2
Epoch rev:            2262
Checksum:              271

Satellite: INMARSAT 3-F3
Catalog number: 24674
Epoch time:      102361.64629984
Element set:     957 
Inclination:        0.0517 deg
RA of node:       355.2483 deg
Eccentricity:    0.0004376
Arg of perigee:   280.6320 deg
Mean anomaly:     230.8074 deg
Mean motion:    1.00272029 rev/day
Decay rate:    5.1000E-007 rev/day^2
Epoch rev:            2205
Checksum:              274

Satellite: GOES 10
Catalog number: 24786
Epoch time:      102361.36365196
Element set:     477 
Inclination:        0.0182 deg
RA of node:       239.7888 deg
Eccentricity:    0.0002881
Arg of perigee:    67.1991 deg
Mean anomaly:     144.0925 deg
Mean motion:    1.00272977 rev/day
Decay rate:    1.0100E-006 rev/day^2
Epoch rev:            2080
Checksum:              292

Satellite: INMARSAT 3-F4
Catalog number: 24819
Epoch time:      102360.27473560
Element set:     858 
Inclination:        0.0403 deg
RA of node:       304.5192 deg
Eccentricity:    0.0003275
Arg of perigee:   337.5727 deg
Mean anomaly:     217.4361 deg
Mean motion:    1.00272797 rev/day
Decay rate:   -2.7399E-006 rev/day^2
Epoch rev:            2046
Checksum:              297

Satellite: FENGYUN 2A
Catalog number: 24834
Epoch time:      102360.95578905
Element set:     940 
Inclination:        2.4402 deg
RA of node:        88.9258 deg
Eccentricity:    0.0002094
Arg of perigee:   241.9411 deg
Mean anomaly:     194.9989 deg
Mean motion:    1.00268853 rev/day
Decay rate:   -1.8800E-006 rev/day^2
Epoch rev:            2030
Checksum:              304

Satellite: HOT BIRD 3
Catalog number: 24931
Epoch time:      102351.86791068
Element set:     417 
Inclination:        0.0013 deg
RA of node:       322.2522 deg
Eccentricity:    0.0005452
Arg of perigee:   322.5658 deg
Mean anomaly:     126.9331 deg
Mean motion:    1.00273655 rev/day
Decay rate:    1.1199E-006 rev/day^2
Epoch rev:            1945
Checksum:              268

Satellite: METEOSAT 7
Catalog number: 24932
Epoch time:      102360.83418404
Element set:     218 
Inclination:        0.1048 deg
RA of node:        16.0438 deg
Eccentricity:    0.0001308
Arg of perigee:   231.3308 deg
Mean anomaly:     148.0213 deg
Mean motion:    1.00270014 rev/day
Decay rate:    5.9999E-008 rev/day^2
Epoch rev:            1948
Checksum:              262

Satellite: ASTRA 1G
Catalog number: 25071
Epoch time:      102354.00000000
Element set:     385 
Inclination:        0.0122 deg
RA of node:       319.8851 deg
Eccentricity:    0.0002995
Arg of perigee:    65.1991 deg
Mean anomaly:      82.5033 deg
Mean motion:    1.00273184 rev/day
Decay rate:    1.4299E-006 rev/day^2
Epoch rev:            1853
Checksum:              246

Satellite: INMARSAT 3-F5
Catalog number: 25153
Epoch time:      102357.15378473
Element set:     824 
Inclination:        0.4503 deg
RA of node:       357.6363 deg
Eccentricity:    0.0004446
Arg of perigee:   282.0150 deg
Mean anomaly:     252.2432 deg
Mean motion:    1.00275216 rev/day
Decay rate:    1.5699E-006 rev/day^2
Epoch rev:            1792
Checksum:              283

Satellite: HOT BIRD 4
Catalog number: 25237
Epoch time:      102353.82621742
Element set:     322 
Inclination:        0.0438 deg
RA of node:       307.7455 deg
Eccentricity:    0.0004897
Arg of perigee:   256.9385 deg
Mean anomaly:     194.0865 deg
Mean motion:    1.00274102 rev/day
Decay rate:    1.1099E-006 rev/day^2
Epoch rev:            1793
Checksum:              292

Satellite: NOAA 15
Catalog number: 25338
Epoch time:      102361.90839083
Element set:     949 
Inclination:       98.5515 deg
RA of node:        20.4830 deg
Eccentricity:    0.0011351
Arg of perigee:   108.7953 deg
Mean anomaly:     251.4458 deg
Mean motion:   14.24219344 rev/day
Decay rate:    4.1799E-006 rev/day^2
Epoch rev:           24030
Checksum:              311

Satellite: RESURS O1-N4
Catalog number: 25394
Epoch time:      102361.22988457
Element set:     409 
Inclination:       98.6385 deg
RA of node:        75.1218 deg
Eccentricity:    0.0000657
Arg of perigee:   252.6073 deg
Mean anomaly:     107.5035 deg
Mean motion:   14.23856881 rev/day
Decay rate:    6.4400E-006 rev/day^2
Epoch rev:           23194
Checksum:              322

Satellite: TMSAT
Catalog number: 25396
Epoch time:      102361.18647472
Element set:     807 
Inclination:       98.6361 deg
RA of node:        74.3197 deg
Eccentricity:    0.0001377
Arg of perigee:   265.5417 deg
Mean anomaly:      94.5606 deg
Mean motion:   14.23489715 rev/day
Decay rate:   -4.3000E-007 rev/day^2
Epoch rev:           23193
Checksum:              319

Satellite: TECHSAT 1B
Catalog number: 25397
Epoch time:      102359.92192475
Element set:     94 
Inclination:       98.6302 deg
RA of node:        72.0274 deg
Eccentricity:    0.0000670
Arg of perigee:   353.2761 deg
Mean anomaly:       6.8406 deg
Mean motion:   14.22945710 rev/day
Decay rate:    2.4099E-006 rev/day^2
Epoch rev:           23172
Checksum:              302

Satellite: ASTRA 2A
Catalog number: 25462
Epoch time:      102354.00000000
Element set:     526 
Inclination:        0.0385 deg
RA of node:       308.7109 deg
Eccentricity:    0.0004824
Arg of perigee:   280.8620 deg
Mean anomaly:     247.0673 deg
Mean motion:    1.00272094 rev/day
Decay rate:    1.7300E-006 rev/day^2
Epoch rev:            1583
Checksum:              233

Satellite: EUTELSAT W2
Catalog number: 25491
Epoch time:      102359.83938433
Element set:     552 
Inclination:        0.0126 deg
RA of node:       249.7749 deg
Eccentricity:    0.0003903
Arg of perigee:    24.4382 deg
Mean anomaly:     138.1182 deg
Mean motion:    1.00272597 rev/day
Decay rate:    1.1500E-006 rev/day^2
Epoch rev:            1550
Checksum:              381

Satellite: HOT BIRD 5
Catalog number: 25495
Epoch time:      102359.89977105
Element set:     485 
Inclination:        0.0061 deg
RA of node:       259.6568 deg
Eccentricity:    0.0004136
Arg of perigee:   353.2690 deg
Mean anomaly:     198.3631 deg
Mean motion:    1.00275235 rev/day
Decay rate:    1.6699E-006 rev/day^2
Epoch rev:            1547
Checksum:              321

Satellite: SEDSAT 1
Catalog number: 25509
Epoch time:      102361.56747329
Element set:     743 
Inclination:       31.4285 deg
RA of node:        92.4383 deg
Eccentricity:    0.0359299
Arg of perigee:   200.1057 deg
Mean anomaly:     158.5083 deg
Mean motion:   14.27320766 rev/day
Decay rate:    2.0530E-005 rev/day^2
Epoch rev:           21773
Checksum:              305

Satellite: PAN SAT
Catalog number: 25520
Epoch time:      102361.68317041
Element set:     621 
Inclination:       28.4598 deg
RA of node:       216.0441 deg
Eccentricity:    0.0006079
Arg of perigee:   140.7973 deg
Mean anomaly:     219.2950 deg
Mean motion:   15.13597465 rev/day
Decay rate:    4.8090E-005 rev/day^2
Epoch rev:           22956
Checksum:              305

Satellite: ISS (ZARYA)
Catalog number: 25544
Epoch time:      102362.20456019
Element set:     518 
Inclination:       51.6339 deg
RA of node:       159.0696 deg
Eccentricity:    0.0004089
Arg of perigee:   324.9748 deg
Mean anomaly:      23.7548 deg
Mean motion:   15.58208132 rev/day
Decay rate:    2.3077E-004 rev/day^2
Epoch rev:           23436
Checksum:              310

